| time (UTC) | temp C | wind direction | speed KPH | gust KPH | rain 1hr cm | rain 24hr cm | rain mn cm | humidity % | barometer mb |
| 20260503021514 | 7 | 305 | 0.0 | 6.4 | 0.00 | 0.00 | 0.00 | 66 | 970.7 |
| 20260503020010 | 8 | 318 | 0.0 | 3.2 | 0.00 | 0.00 | 0.00 | 59 | 970.5 |
| 20260503014508 | 9 | 318 | 0.0 | 4.8 | 0.00 | 0.00 | 0.00 | 56 | 970.6 |
| 20260503013018 | 10 | 335 | 0.0 | 6.4 | 0.00 | 0.00 | 0.00 | 54 | 970.3 |
| 20260503011505 | 11 | 335 | 3.2 | 16.1 | 0.00 | 0.00 | 0.00 | 50 | 970.1 |
| 20260503010004 | 11 | 306 | 4.8 | 17.7 | 0.00 | 0.00 | 0.00 | 49 | 970.1 |
| 20260503004504 | 11 | 338 | 3.2 | 19.3 | 0.00 | 0.00 | 0.00 | 49 | 970.1 |
| 20260503003004 | 11 | 327 | 3.2 | 14.5 | 0.00 | 0.00 | 0.00 | 49 | 970.0 |
| 20260503001502 | 11 | 11 | 8.0 | 20.9 | 0.00 | 0.00 | 0.00 | 48 | 969.7 |
| 20260503000002 | 12 | 311 | 3.2 | 19.3 | 0.00 | 0.00 | 0.00 | 48 | 969.4 |
| 20260502234501 | 12 | 288 | 9.7 | 24.1 | 0.00 | 0.00 | 0.00 | 45 | 969.0 |
| 20260502233002 | 12 | 303 | 12.9 | 27.4 | 0.00 | 0.00 | 0.00 | 45 | 968.7 |
| 20260502231612 | 13 | 335 | 11.3 | 29.0 | 0.00 | 0.00 | 0.00 | 44 | 968.3 |
| 20260502230059 | 14 | 286 | 4.8 | 16.1 | 0.00 | 0.00 | 0.00 | 43 | 968.4 |
| 20260502224559 | 14 | 315 | 4.8 | 14.5 | 0.00 | 0.00 | 0.00 | 44 | 968.3 |
| 20260502223059 | 13 | 5 | 11.3 | 25.7 | 0.00 | 0.00 | 0.00 | 45 | 968.4 |
| 20260502221604 | 14 | 312 | 11.3 | 25.7 | 0.00 | 0.00 | 0.00 | 44 | 968.3 |
| 20260502220104 | 14 | 36 | 8.0 | 27.4 | 0.00 | 0.00 | 0.00 | 43 | 968.1 |
| 20260502214606 | 14 | 308 | 12.9 | 25.7 | 0.00 | 0.00 | 0.00 | 43 | 967.9 |
| 20260502213057 | 15 | 54 | 12.9 | 22.5 | 0.00 | 0.00 | 0.00 | 42 | 967.6 |
| 20260502211602 | 15 | 283 | 14.5 | 30.6 | 0.00 | 0.00 | 0.00 | 41 | 967.3 |
| 20260502204656 | 16 | 300 | 11.3 | 22.5 | 0.00 | 0.00 | 0.00 | 40 | 966.8 |
| 20260502203059 | 16 | 360 | 12.9 | 22.5 | 0.00 | 0.00 | 0.00 | 40 | 966.8 |
| 20260502201553 | 16 | 355 | 4.8 | 17.7 | 0.00 | 0.00 | 0.00 | 39 | 966.8 |
| 20260502200052 | 17 | 300 | 12.9 | 22.5 | 0.00 | 0.00 | 0.00 | 37 | 966.9 |
| 20260502194550 | 16 | 326 | 11.3 | 20.9 | 0.00 | 0.00 | 0.00 | 38 | 967.2 |
| 20260502193048 | 17 | 304 | 8.0 | 17.7 | 0.00 | 0.00 | 0.00 | 37 | 967.3 |
| 20260502191543 | 16 | 53 | 6.4 | 20.9 | 0.00 | 0.00 | 0.00 | 39 | 967.6 |
| 20260502190043 | 16 | 292 | 8.0 | 25.7 | 0.00 | 0.00 | 0.00 | 40 | 967.7 |
| 20260502184542 | 15 | 302 | 8.0 | 19.3 | 0.00 | 0.00 | 0.00 | 40 | 967.7 |
| 20260502183040 | 15 | 18 | 8.0 | 22.5 | 0.00 | 0.00 | 0.00 | 39 | 967.8 |
| 20260502181534 | 15 | 68 | 3.2 | 12.9 | 0.00 | 0.00 | 0.00 | 45 | 968.1 |
| 20260502163018 | 12 | 355 | 1.6 | 14.5 | 0.00 | 0.00 | 0.00 | 52 | 969.8 |
| 20260502161516 | 12 | 313 | 9.7 | 19.3 | 0.00 | 0.00 | 0.00 | 51 | 969.9 |
| 20260502151512 | 10 | 95 | 6.4 | 16.1 | 0.00 | 0.00 | 0.00 | 53 | 970.5 |
| 20260502123057 | 10 | 309 | 4.8 | 9.7 | 0.00 | 0.00 | 0.00 | 56 | 969.8 |
| 20260502121601 | 10 | 14 | 1.6 | 12.9 | 0.00 | 0.00 | 0.00 | 55 | 969.5 |
| 20260502120110 | 10 | 298 | 4.8 | 17.7 | 0.00 | 0.00 | 0.00 | 55 | 969.7 |
| 20260502114600 | 10 | 316 | 4.8 | 20.9 | 0.00 | 0.00 | 0.00 | 56 | 969.7 |
| 20260502113050 | 10 | 337 | 9.7 | 17.7 | 0.00 | 0.00 | 0.00 | 57 | 969.4 |
| 20260502111553 | 10 | 321 | 3.2 | 16.1 | 0.00 | 0.00 | 0.00 | 64 | 969.4 |
| 20260502110049 | 10 | 64 | 8.0 | 17.7 | 0.00 | 0.00 | 0.00 | 63 | 969.1 |
| 20260502104552 | 10 | 355 | 3.2 | 9.7 | 0.00 | 0.00 | 0.00 | 62 | 969.2 |
| 20260502103047 | 10 | 297 | 4.8 | 24.1 | 0.00 | 0.00 | 0.00 | 63 | 969.0 |
| 20260502101547 | 10 | 355 | 3.2 | 25.7 | 0.00 | 0.00 | 0.00 | 66 | 968.9 |
| 20260502070027 | 11 | 340 | 6.4 | 19.3 | 0.00 | 0.00 | 0.00 | 72 | 968.3 |
| 20260502064523 | 11 | 40 | 4.8 | 16.1 | 0.00 | 0.00 | 0.00 | 72 | 968.4 |
| 20260502063021 | 12 | 111 | 6.4 | 14.5 | 0.00 | 0.00 | 0.00 | 72 | 968.8 |
| 20260502061519 | 12 | 342 | 3.2 | 8.0 | 0.00 | 0.00 | 0.00 | 71 | 969.1 |
| 20260502060019 | 12 | 326 | 1.6 | 8.0 | 0.00 | 0.00 | 0.00 | 71 | 969.3 |
| 20260502054520 | 12 | 355 | 1.6 | 8.0 | 0.00 | 0.00 | 0.00 | 74 | 969.3 |
| 20260502053016 | 12 | 355 | 1.6 | 3.2 | 0.00 | 0.00 | 0.00 | 75 | 969.3 |
| 20260502051530 | 12 | 355 | 1.6 | 12.9 | 0.00 | 0.00 | 0.00 | 75 | 969.1 |
| 20260502050012 | 11 | 45 | 1.6 | 6.4 | 0.00 | 0.00 | 0.00 | 80 | 969.1 |
| 20260502044507 | 11 | 37 | 0.0 | 4.8 | 0.00 | 0.00 | 0.00 | 82 | 969.2 |
| 20260502043005 | 10 | 24 | 1.6 | 6.4 | 0.00 | 0.00 | 0.00 | 87 | 969.2 |
| 20260502041504 | 10 | 20 | 0.0 | 3.2 | 0.00 | 0.00 | 0.00 | 88 | 969.2 |
| 20260502040101 | 11 | 17 | 0.0 | 3.2 | 0.00 | 0.00 | 0.00 | 87 | 969.1 |
| 20260502034559 | 10 | 20 | 3.2 | 12.9 | 0.00 | 0.00 | 0.00 | 88 | 969.0 |
| 20260502033059 | 10 | 246 | 0.0 | 0.0 | 0.00 | 0.00 | 0.00 | 90 | 968.8 |
| 20260502031611 | 10 | 246 | 0.0 | 0.0 | 0.00 | 0.00 | 0.00 | 89 | 969.1 |
| 20260502030058 | 10 | 246 | 0.0 | 0.0 | 0.00 | 0.00 | 0.00 | 87 | 969.1 |
| 20260502024558 | 11 | 246 | 0.0 | 0.0 | 0.00 | 0.00 | 0.00 | 87 | 968.8 |
| 20260502023057 | 11 | 246 | 0.0 | 1.6 | 0.00 | 0.00 | 0.00 | 86 | 968.9 |